This demonstration page uses our WeatherBlox Daily Observations layout. Learn more.

Hourly Observations for November 14, 2015

Temp ( °F °C ) Dew Point ( °F °C ) Humidity (%) Winds ( mph kmh ) Pressure ( in mb ) Visibility ( mi km ) Precip ( " mm )
12:15 am 00:15 Clear 38 3.1 28 -2 70 70 SSW 5 7 30.21 1023 10 16.0934 0 0
12:35 am 00:35 Clear 38 3.2 28 -2 69 69 SW 5 7 30.21 1023 10 16.0934 0 0
12:55 am 00:55 Clear 38 3.2 28 -2 69 69 SW 5 7 30.18 1022 10 16.0934 0 0
1:15 am 01:15 Clear 39 3.9 29 -1.6 68 68 WSW 5 7 30.15 1021 10 16.0934 0 0
1:35 am 01:35 Clear 40 4.5 29 -1.6 65 65 WSW 6 9 30.15 1021 10 16.0934 0 0
1:55 am 01:55 Clear 40 4.6 29 -1.5 65 65 WSW 5 7 30.15 1021 10 16.0934 0 0
2:15 am 02:15 Clear 40 4.5 29 -1.6 65 65 Calm 30.15 1021 10 16.0934 0 0
2:35 am 02:35 Clear 35 1.8 27 -2.8 72 72 S 5 7 30.18 1022 10 16.0934 0 0
2:55 am 02:55 Clear 33 0.5 27 -2.8 79 79 S 7 11 30.18 1022 10 16.0934 0 0
3:15 am 03:15 Clear 34 1.3 28 -2.2 78 78 SSW 5 7 30.18 1022 10 16.0934 0 0
3:35 am 03:35 Clear 35 1.7 29 -1.9 77 77 SW 3 6 30.18 1022 10 16.0934 0 0
3:55 am 03:55 Clear 35 1.9 28 -2.1 75 75 SW 5 7 30.18 1022 10 16.0934 0 0
4:15 am 04:15 Clear 36 2.1 28 -2.1 74 74 Calm 30.18 1022 10 16.0934 0 0
4:35 am 04:35 Clear 38 3.1 28 -2 70 70 Calm 30.18 1022 10 16.0934 0 0
4:55 am 04:55 Clear 35 1.5 28 -2.3 76 76 WSW 5 7 30.18 1022 10 16.0934 0 0
5:15 am 05:15 Clear 36 2.4 28 -2.3 71 71 WSW 3 6 30.18 1022 10 16.0934 0 0
5:35 am 05:35 Clear 35 1.5 28 -2.3 76 76 SSW 6 9 30.18 1022 10 16.0934 0 0
5:55 am 05:55 Clear 33 0.3 28 -2.5 82 82 SW 5 7 30.21 1023 10 16.0934 0 0
6:15 am 06:15 Clear 34 0.9 28 -2.2 80 80 Calm 30.18 1022 10 16.0934 0 0
6:35 am 06:35 Clear 33 0.8 28 -2.4 79 79 WSW 5 7 30.18 1022 10 16.0934 0 0
6:55 am 06:55 Clear 35 1.5 28 -2.4 76 76 Calm 30.18 1022 10 16.0934 0 0
7:15 am 07:15 Clear 33 0.8 27 -2.7 78 78 SSW 8 13 30.18 1022 10 16.0934 0 0
7:35 am 07:35 Sunny 32 0.2 27 -2.6 82 82 SW 5 7 30.21 1023 10 16.0934 0 0
7:55 am 07:55 Sunny 34 0.9 28 -2.1 81 81 SW 6 9 30.18 1022 10 16.0934 0 0
8:15 am 08:15 Sunny 35 1.5 28 -2 78 78 SW 6 9 30.18 1022 10 16.0934 0 0
8:35 am 08:35 Sunny 36 2.1 29 -1.5 77 77 SW 6 9 30.18 1022 10 16.0934 0 0
8:55 am 08:55 Sunny 38 3.4 31 -0.8 74 74 SW 6 9 30.18 1022 10 16.0934 0 0
9:15 am 09:15 Sunny 41 5.1 31 -0.4 68 68 SW 5 7 30.15 1021 10 16.0934 0 0
9:35 am 09:35 Sunny 43 6 32 -0.2 65 65 SW 5 7 30.15 1021 10 16.0934 0 0
9:55 am 09:55 Sunny 45 7.1 33 0.5 63 63 SSW 7 11 30.12 1020 10 16.0934 0 0
10:15 am 10:15 Sunny 47 8.4 33 0.5 58 58 SSW 6 9 30.12 1020 10 16.0934 0 0
10:35 am 10:35 Sunny 49 9.6 32 0.2 52 52 SW 6 9 30.12 1020 10 16.0934 0 0
10:55 am 10:55 Sunny 52 11 32 0 47 47 SSW 5 7 30.09 1019 10 16.0934 0 0
11:15 am 11:15 Sunny 54 12.3 32 -0.1 43 43 SSW 6 9 30.09 1019 10 16.0934 0 0
11:35 am 11:35 Sunny 56 13.2 30 -1.1 37 37 SSW 8 13 30.09 1019 10 16.0934 0 0
11:55 am 11:55 Sunny 57 13.8 30 -1.3 36 36 SSW 9 15 30.06 1018 10 16.0934 0 0
12:15 pm 12:15 Sunny 58 14.6 29 -1.5 33 33 SSW 12 19 30.03 1017 10 16.0934 0 0
12:35 pm 12:35 Sunny 60 15.4 30 -0.9 33 33 SSW 10 17 30.03 1017 10 16.0934 0 0
12:55 pm 12:55 Sunny 60 15.5 31 -0.4 34 34 SSW 12 19 30.03 1017 10 16.0934 0 0
1:15 pm 13:15 Sunny 61 16 31 -0.5 33 33 S 14 22 30.03 1017 10 16.0934 0 0
1:35 pm 13:35 Sunny 62 16.7 32 0.1 33 33 S 20 31 29.97 1015 10 16.0934 0 0
1:55 pm 13:55 Sunny 62 16.4 33 0.4 34 34 SSW 18 30 30 1016 10 16.0934 0 0
2:15 pm 14:15 Sunny 62 16.6 33 0.8 35 35 SSW 20 31 29.97 1015 10 16.0934 0 0
2:35 pm 14:35 Sunny 63 17.2 34 1 34 34 SSW 17 28 29.97 1015 10 16.0934 0 0
2:55 pm 14:55 Sunny 64 17.5 33 0.6 32 32 S 22 35 29.97 1015 10 16.0934 0 0
3:15 pm 15:15 Sunny 64 17.7 34 0.9 32 32 SSW 20 31 29.94 1014 10 16.0934 0 0
3:35 pm 15:35 Sunny 64 18 33 0.7 31 31 SSW 17 28 29.97 1015 10 16.0934 0 0
3:55 pm 15:55 Sunny 64 17.9 33 0.8 32 32 SSW 12 19 29.94 1014 10 16.0934 0 0
4:15 pm 16:15 Sunny 64 17.6 34 1 33 33 SSW 12 19 29.94 1014 10 16.0934 0 0
4:35 pm 16:35 Sunny 63 17.2 34 1.2 34 34 SSW 7 11 29.94 1014 10 16.0934 0 0
4:55 pm 16:55 Sunny 61 16.1 35 1.7 38 38 SSW 7 11 29.94 1014 10 16.0934 0 0
5:15 pm 17:15 Sunny 58 14.4 36 2 43 43 SSW 7 11 29.97 1015 10 16.0934 0 0
5:35 pm 17:35 Clear 54 12.3 36 2 50 50 SSW 6 9 30 1016 10 16.0934 0 0
5:55 pm 17:55 Clear 51 10.8 35 1.8 54 54 SW 7 11 30 1016 10 16.0934 0 0
6:15 pm 18:15 Clear 52 11.2 35 1.5 52 52 SSW 6 9 30.03 1017 10 16.0934 0 0
6:35 pm 18:35 Clear 50 10.1 35 1.4 55 55 SSW 5 7 30.03 1017 10 16.0934 0 0
6:55 pm 18:55 Clear 49 9.7 34 1.3 56 56 SSW 5 7 30.03 1017 10 16.0934 0 0
7:15 pm 19:15 Clear 48 8.7 34 0.9 58 58 S 7 11 30.06 1018 10 16.0934 0 0
7:35 pm 19:35 Clear 47 8.6 34 1.1 60 60 SSW 8 13 30.06 1018 10 16.0934 0 0
7:55 pm 19:55 Clear 49 9.4 34 1.1 56 56 S 7 11 30.06 1018 10 16.0934 0 0
8:15 pm 20:15 Clear 47 8.4 34 1 60 60 S 9 15 30.06 1018 10 16.0934 0 0
8:35 pm 20:35 Clear 48 8.9 35 1.7 61 61 S 9 15 30.06 1018 10 16.0934 0 0
8:55 pm 20:55 Clear 48 9.1 35 1.5 59 59 S 10 17 30.06 1018 10 16.0934 0 0
9:15 pm 21:15 Clear 47 8.1 34 1.3 63 63 S 10 17 30.06 1018 10 16.0934 0 0
9:35 pm 21:35 Clear 48 8.7 34 1.1 59 59 S 12 19 30.06 1018 10 16.0934 0 0
9:55 pm 21:55 Clear 49 9.7 33 0.8 54 54 S 14 22 30.03 1017 10 16.0934 0 0
10:15 pm 22:15 Clear 49 9.3 33 0.5 54 54 S 14 22 30.06 1018 10 16.0934 0 0
10:35 pm 22:35 Clear 48 9.1 33 0.6 56 56 S 16 26 30.06 1018 10 16.0934 0 0
10:55 pm 22:55 Clear 48 8.8 33 0.7 57 57 S 15 24 30.06 1018 10 16.0934 0 0
11:15 pm 23:15 Clear 47 8.3 33 0.7 59 59 S 14 22 30.06 1018 10 16.0934 0 0
11:35 pm 23:35 Clear 46 7.8 33 0.8 62 62 S 14 22 30.06 1018 10 16.0934 0 0
11:55 pm 23:55 Clear 46 7.5 33 0.7 62 62 S 15 24 30.06 1018 10 16.0934 0 0

Powered by AerisWeather